Change the Weather History Date:

Thursday, May 29, 2008

  Actual Average Record
Temperature  
Mean Temperature 65 °F 70 °F  
Max Temperature 77 °F 79 °F 97 °F (1969)
Min Temperature 53 °F 61 °F 41 °F (1894)
Degree Days  
Heating Degree Days 0 1  
Month to date heating degree days 67 77  
Since 1 July heating degree days 3463 4023  
Cooling Degree Days 0 6  
Month to date cooling degree days 46 95  
Year to date cooling degree days 75 121  
Growing Degree Days 16 (Base 50)    
Moisture  
Dew Point 49 °F    
Average Humidity 59    
Maximum Humidity 83    
Minimum Humidity 35    
Precipitation  
Precipitation 0.00 in 0.13 in 1.38 in (1990)
Month to date precipitation 9.21 3.73  
Year to date precipitation 22.47 15.70  
Snow  
Snow 0.00 in 0.00 in - ()
Month to date snowfall 0.0 0.0  
Since 1 July snowfall 4.9 15.4  
Snow Depth 0.00 in    
Sea Level Pressure  
Sea Level Pressure 30.18 in    
Wind  
Wind Speed 8 mph (South)    
Max Wind Speed 14 mph    
Max Gust Speed 23 mph    
Visibility 10 miles    
Events      
T = Trace of Precipitation, MM = Missing Value Source: NWS Daily Summary

Daily Weather History Graph

Daily Weather History Graph

Search for Another Location

Airport or City:

Trip Planner

Search our weather history database for the weather conditions in past years. The results will help you decide how hot, cold, wet, or windy it might be!

Date:

Astronomy

May. 29, 2008 Rise Set
Actual Time 5:45 AM EDT 8:25 PM EDT
Civil Twilight 5:14 AM EDT 8:56 PM EDT
Nautical Twilight 4:35 AM EDT 9:35 PM EDT
Astronomical Twilight 3:52 AM EDT 10:19 PM EDT
Moon 2:08 AM EDT (5/29) 2:36 PM EDT (5/29)
Length of Visible Light 15h 42m
Length of Day
14h 39m
Waning Crescent, 34% of the Moon is Illuminated
May 29
Waning Crescent
Jun 3
New
Jun 10
First Quarter
Jun 18
Full
Jun 26
Last Quarter

Hourly Weather History & Observations

Time (EDT) Temp. Dew Point Humidity Pressure Visibility Wind Dir Wind Speed Gust Speed Precip Events Conditions
12:52 AM 57.9 °F 45.0 °F 62% 30.24 in 10.0 mi SSW 6.9 mph - N/A   Clear
1:52 AM 57.0 °F 45.0 °F 64% 30.23 in 10.0 mi SSW 3.5 mph - N/A   Clear
2:52 AM 55.0 °F 45.0 °F 69% 30.23 in 10.0 mi SSW 5.8 mph - N/A   Clear
3:52 AM 55.0 °F 46.0 °F 72% 30.22 in 10.0 mi SSW 6.9 mph - N/A   Clear
4:52 AM 54.0 °F 46.9 °F 77% 30.22 in 10.0 mi SW 3.5 mph - N/A   Clear
5:52 AM 54.0 °F 48.0 °F 80% 30.23 in 10.0 mi SW 4.6 mph - N/A   Clear
6:52 AM 55.0 °F 48.9 °F 80% 30.24 in 10.0 mi SW 3.5 mph - N/A   Clear
7:52 AM 57.9 °F 50.0 °F 75% 30.25 in 10.0 mi South 3.5 mph - N/A   Partly Cloudy
8:52 AM 62.1 °F 52.0 °F 70% 30.24 in 10.0 mi SSE 4.6 mph - N/A   Partly Cloudy
9:52 AM 66.0 °F 53.1 °F 63% 30.23 in 10.0 mi South 6.9 mph - N/A   Partly Cloudy
10:52 AM 70.0 °F 52.0 °F 53% 30.21 in 10.0 mi SSE 10.4 mph - N/A   Scattered Clouds
11:52 AM 72.0 °F 48.9 °F 44% 30.21 in 10.0 mi SSE 10.4 mph - N/A   Scattered Clouds
12:52 PM 73.0 °F 44.1 °F 35% 30.19 in 10.0 mi SSE 10.4 mph - N/A   Scattered Clouds
1:52 PM 73.9 °F 46.9 °F 38% 30.16 in 10.0 mi SSE 13.8 mph - N/A   Scattered Clouds
2:52 PM 75.9 °F 46.9 °F 36% 30.15 in 10.0 mi SSE 10.4 mph 16.1 mph N/A   Scattered Clouds
3:52 PM 75.9 °F 48.9 °F 38% 30.13 in 10.0 mi SSE 8.1 mph - N/A   Scattered Clouds
4:52 PM 77.0 °F 50.0 °F 39% 30.11 in 10.0 mi South 9.2 mph - N/A   Scattered Clouds
5:52 PM 75.9 °F 50.0 °F 40% 30.10 in 10.0 mi South 11.5 mph - N/A   Scattered Clouds
6:52 PM 75.9 °F 48.9 °F 38% 30.10 in 10.0 mi SSW 11.5 mph - N/A   Partly Cloudy
7:52 PM 73.9 °F 48.9 °F 41% 30.10 in 10.0 mi SSW 11.5 mph - N/A   Partly Cloudy
8:52 PM 70.0 °F 51.1 °F 51% 30.10 in 10.0 mi SSW 9.2 mph - N/A   Partly Cloudy
9:52 PM 69.1 °F 53.1 °F 57% 30.12 in 10.0 mi South 9.2 mph - N/A   Clear
10:52 PM 66.0 °F 51.1 °F 59% 30.13 in 10.0 mi South 8.1 mph - N/A   Partly Cloudy
11:52 PM 64.0 °F 54.0 °F 70% 30.12 in 10.0 mi South 5.8 mph - N/A   Mostly Cloudy